Regional Weather Roundup
Issued by NWS

Home | Current Version | Previous Version | Graphics & Text | Print | Product List | Glossary On
Versions: 1 2 3 4 5 6 7 8 9 10 11 12 13 14 15 16 17 18 19 20 21 22 23 24 25 26 27 28 29 30 31 32 33 34 35 36 37 38 39 40 41 42 43 44 45 46 47 48 49 50
000
ASUS43 KLMK 232110
RWRKY
KENTUCKY REGIONAL WEATHER ROUNDUP
NATIONAL WEATHER SERVICE LOUISVILLE KY
500 PM EDT WED APR 23 2014

NOTE "FAIR" INDICATES FEW OR NO CLOUDS BELOW 12,000 FEET
WITH NO SIGNIFICANT WEATHER AND/OR OBSTRUCTIONS TO VISIBILITY.

KYZ001>023-026-027-061>063-070>075-232200-
WESTERN AND SOUTH CENTRAL KENTUCKY

CITY           SKY/WX    TMP DP  RH WIND       PRES   REMARKS
PADUCAH        SUNNY     70  37  29 E8        30.01F
HENDERSON      SUNNY     63  32  31 NE5       30.04F
OWENSBORO      SUNNY     64  30  28 NE9       30.04F
HOPKINSVILLE   SUNNY     67  33  28 VRB6      30.01F
BOWLING GREEN  SUNNY     67  25  20 VRB3      30.02F
GLASGOW        SUNNY     66  30  25 NE6       30.01F
$$

KYZ024-025-028>034-038-045-046-053-232200-
NORTH CENTRAL KENTUCKY

CITY           SKY/WX    TMP DP  RH WIND       PRES   REMARKS
LOUISVILLE/SDF MOSUNNY   64  31  28 N7        30.05F
LOUISVILLE/LOU SUNNY     65  30  27 N9        30.05F
FORT KNOX      SUNNY     62  30  29 NE9       30.03F
$$

KYZ035>037-039>044-047>052-055>060-089>105-232200-
NORTHEAST KENTUCKY

CITY           SKY/WX    TMP DP  RH WIND       PRES   REMARKS
LEXINGTON      SUNNY     61  34  36 E7        30.05F
COVINGTON      NOT AVBL
FRANKFORT      SUNNY     62  29  28 N6        30.03F
$$

KYZ054-064>069-076>088-106>120-232200-
SOUTHEAST KENTUCKY

CITY           SKY/WX    TMP DP  RH WIND       PRES   REMARKS
JACKSON        SUNNY     63  27  25 VRB3      30.01F
LONDON         SUNNY     65  28  24 N9        30.00F
SOMERSET       SUNNY     63  32  31 NE7       30.03F
MIDDLESBORO    SUNNY     67  29  24 N8        29.98F
MONTICELLO     CLEAR     66  32  28 N7        30.02F
$$




USA.gov is the U.S. government's official web portal to all federal, state and local government web resources and services.